Powrót do katalogu

FENGYUN 1C DEB

AktywnySSO
NORAD 30071·DEBRIS·🇨🇳 China

Wystrzelony May 10, 1999 z Taiyuan Satellite Launch Center

Loading…

Następne Przeloty (najbliższe 24 godziny)

TLE

ŚwieżeSource: Space-Track

Epoka: Sep 14, 2026, 13:46 UTC

1 30071U 99025PY  26257.57424295  .00005021  00000-0  11210-2 0  9991
2 30071  98.6653  11.6389 0034937 346.8072 141.3568 14.56887596 22353

Śledź FENGYUN 1C DEB w czasie rzeczywistym z AllMySat

Download on the App Store